Ionia, MI

9:19 PM EDT on August 20, 2017 (GMT -0400)
Ionia

Weather History for KY70 - February, 2013

Change the Weather History Date:

Sunday, February 17, 2013

  Actual Average (KGRR) Record (KGRR)
Temperature  
Mean Temperature 20 °F -  
Max Temperature 28 °F 30 °F 55 °F (1911)
Min Temperature 11 °F 16 °F -19 °F (1973)
Degree Days  
Heating Degree Days 46    
Moisture  
Dew Point 6 °F    
Average Humidity 56    
Maximum Humidity 74    
Minimum Humidity 33    
Precipitation  
Precipitation 0.00 in - - ()
Sea Level Pressure  
Sea Level Pressure 30.13 in    
Wind  
Wind Speed 4 mph (West)    
Max Wind Speed 10 mph    
Max Gust Speed -    
Visibility 10 miles    
Events Snow    
Averages and records for this station are not official NWS values.
T = Trace of Precipitation, MM = Missing Value Source: NWS Daily Summary

Daily Weather History Graph

Daily Weather History Graph

Search for Another Location

Airport or City:

Trip Planner

Search our weather history database for the weather conditions in past years. The results will help you decide how hot, cold, wet, or windy it might be!

Date:

Astronomy

Feb. 17, 2013 Rise Set
Actual Time 7:34 AM EST 6:14 PM EST
Civil Twilight 7:05 AM EST 6:43 PM EST
Nautical Twilight 6:32 AM EST 7:16 PM EST
Astronomical Twilight 5:59 AM EST 7:49 PM EST
Moon 11:15 AM EST (2/17) 1:21 AM EST (2/17)
Length of Visible Light 11h 38m
Length of Day
10h 40m
Waxing Crescent, 49% of the Moon is Illuminated
Feb 17
Waxing Crescent
Feb 17
First Quarter
Feb 25
Full
Mar 4
Last Quarter
Mar 11
New

Hourly Weather History & Observations

Time (EST) Temp. Windchill Dew Point Humidity Pressure Visibility Wind Dir Wind Speed Gust Speed Precip Events Conditions
12:13 AM 17.8 °F 10.9 °F 6.8 °F 62% 30.07 in 10.0 mi North 4.6 mph - N/A   Scattered Clouds
12:33 AM 17.2 °F 8.9 °F 6.4 °F 63% 30.07 in 10.0 mi North 5.8 mph - N/A   Scattered Clouds
12:53 AM 16.5 °F 9.4 °F 6.3 °F 64% 30.07 in 10.0 mi NNW 4.6 mph - N/A   Clear
1:13 AM 16.2 °F 9.0 °F 6.4 °F 66% 30.07 in 10.0 mi NNW 4.6 mph - N/A   Clear
1:33 AM 16.2 °F 7.6 °F 6.1 °F 65% 30.08 in 10.0 mi NNW 5.8 mph - N/A   Clear
1:53 AM 15.4 °F 5.6 °F 6.1 °F 67% 30.08 in 10.0 mi NNW 6.9 mph - N/A   Clear
2:13 AM 14.7 °F 7.3 °F 6.3 °F 69% 30.08 in 10.0 mi North 4.6 mph - N/A   Clear
2:33 AM 14.4 °F 8.6 °F 6.3 °F 70% 30.08 in 10.0 mi North 3.5 mph - N/A   Clear
2:53 AM 14.0 °F - 6.6 °F 72% 30.08 in 10.0 mi Calm Calm - N/A   Scattered Clouds
3:13 AM 13.8 °F 4.9 °F 6.1 °F 71% 30.09 in 10.0 mi NNW 5.8 mph - N/A   Scattered Clouds
3:33 AM 14.0 °F 6.5 °F 6.8 °F 73% 30.09 in 10.0 mi NNW 4.6 mph - N/A   Mostly Cloudy
3:53 AM 14.7 °F 9.0 °F 7.3 °F 73% 30.09 in 10.0 mi NNW 3.5 mph - N/A   Overcast
4:13 AM 14.7 °F 9.0 °F 7.5 °F 73% 30.10 in 7.0 mi NNW 3.5 mph - N/A Snow Light Snow
4:33 AM 14.2 °F 8.4 °F 7.2 °F 74% 30.10 in 10.0 mi North 3.5 mph - N/A   Overcast
4:53 AM 13.6 °F 7.7 °F 6.6 °F 74% 30.11 in 10.0 mi North 3.5 mph - N/A   Mostly Cloudy
5:13 AM 13.3 °F 5.6 °F 6.4 °F 74% 30.11 in 10.0 mi North 4.6 mph - N/A   Mostly Cloudy
5:33 AM 13.3 °F 5.6 °F 6.1 °F 73% 30.12 in 10.0 mi North 4.6 mph - N/A   Scattered Clouds
5:53 AM 12.2 °F 6.1 °F 5.2 °F 73% 30.12 in 10.0 mi North 3.5 mph - N/A   Clear
6:13 AM 11.8 °F - 4.8 °F 73% 30.13 in 10.0 mi Calm Calm - N/A   Clear
6:33 AM 12.2 °F - 5.0 °F 73% 30.13 in 10.0 mi Calm Calm - N/A   Clear
6:53 AM 12.2 °F - 4.5 °F 71% 30.14 in 10.0 mi Calm Calm - N/A   Clear
7:13 AM 12.2 °F - 4.1 °F 70% 30.14 in 10.0 mi Calm Calm - N/A   Clear
7:33 AM 11.8 °F - 4.3 °F 72% 30.14 in 10.0 mi Calm Calm - N/A   Clear
7:53 AM 12.0 °F - 4.8 °F 73% 30.15 in 10.0 mi Calm Calm - N/A   Clear
8:13 AM 13.8 °F - 5.4 °F 69% 30.15 in 10.0 mi Calm Calm - N/A   Scattered Clouds
8:33 AM 14.7 °F - 4.8 °F 65% 30.16 in 10.0 mi Calm Calm - N/A   Overcast
8:53 AM 15.1 °F 7.7 °F 6.1 °F 68% 30.17 in 10.0 mi NW 4.6 mph - N/A   Overcast
9:13 AM 15.8 °F 7.2 °F 5.0 °F 62% 30.16 in 10.0 mi NNE 5.8 mph - N/A   Overcast
9:33 AM 16.3 °F 10.8 °F 5.0 °F 61% 30.17 in 10.0 mi NNE 3.5 mph - N/A   Overcast
9:53 AM 17.2 °F 7.8 °F 5.4 °F 60% 30.17 in 10.0 mi ENE 6.9 mph - N/A   Overcast
10:13 AM 18.7 °F 11.9 °F 5.0 °F 55% 30.17 in 10.0 mi NE 4.6 mph - N/A   Overcast
10:33 AM 20.1 °F 12.3 °F 4.3 °F 50% 30.18 in 10.0 mi ENE 5.8 mph - N/A   Overcast
10:53 AM 20.5 °F 14.0 °F 3.7 °F 48% 30.18 in 10.0 mi NE 4.6 mph - N/A   Overcast
11:13 AM 21.0 °F - 2.3 °F 44% 30.18 in 10.0 mi Calm Calm - N/A   Overcast
11:33 AM 21.9 °F - 3.6 °F 45% 30.18 in 10.0 mi Calm Calm - N/A   Overcast
11:53 AM 22.8 °F - 3.4 °F 43% 30.17 in 10.0 mi Calm Calm - N/A   Overcast
12:13 PM 23.2 °F 18.7 °F 3.2 °F 42% 30.18 in 10.0 mi South 3.5 mph - N/A   Overcast
12:33 PM 23.5 °F - 3.4 °F 42% 30.18 in 10.0 mi Calm Calm - N/A   Overcast
12:53 PM 23.7 °F - 2.7 °F 40% 30.17 in 10.0 mi Calm Calm - N/A   Overcast
1:13 PM 25.5 °F - 3.9 °F 40% 30.17 in 10.0 mi Calm Calm - N/A   Overcast
1:33 PM 26.4 °F 18.9 °F 3.9 °F 38% 30.16 in 7.0 mi SSW 6.9 mph - N/A   Overcast
1:53 PM 25.0 °F 18.1 °F 3.4 °F 40% 30.16 in 10.0 mi SSW 5.8 mph - N/A   Overcast
2:13 PM 27.3 °F - 3.0 °F 35% 30.15 in 10.0 mi Calm Calm - N/A   Overcast
2:33 PM 28.0 °F 24.2 °F 2.3 °F 33% 30.15 in 10.0 mi WSW 3.5 mph - N/A   Overcast
2:53 PM 27.9 °F 21.5 °F 4.3 °F 37% 30.14 in 10.0 mi West 5.8 mph - N/A   Overcast
3:13 PM 27.7 °F 21.3 °F 2.8 °F 35% 30.14 in 10.0 mi WSW 5.8 mph - N/A   Mostly Cloudy
3:33 PM 28.2 °F 21.0 °F 5.2 °F 38% 30.15 in 10.0 mi West 6.9 mph - N/A   Scattered Clouds
3:53 PM 28.2 °F 22.0 °F 3.7 °F 35% 30.15 in 10.0 mi WSW 5.8 mph - N/A   Scattered Clouds
4:13 PM 28.2 °F 21.0 °F 3.2 °F 34% 30.14 in 10.0 mi WSW 6.9 mph - N/A   Mostly Cloudy
4:33 PM 27.9 °F 19.8 °F 4.6 °F 37% 30.14 in 10.0 mi WSW 8.1 mph - N/A   Overcast
4:53 PM 27.7 °F 21.3 °F 4.6 °F 38% 30.14 in 10.0 mi WSW 5.8 mph - N/A   Scattered Clouds
5:13 PM 28.2 °F 21.0 °F 4.8 °F 37% 30.14 in 10.0 mi West 6.9 mph - N/A   Clear
5:33 PM 27.5 °F 18.0 °F 5.9 °F 40% 30.14 in 10.0 mi West 10.4 mph - N/A   Clear
5:53 PM 26.6 °F 17.5 °F 7.2 °F 44% 30.14 in 10.0 mi WSW 9.2 mph - N/A   Clear
6:13 PM 25.7 °F 19.0 °F 7.9 °F 47% 30.14 in 10.0 mi WSW 5.8 mph - N/A   Clear
6:33 PM 24.8 °F 17.9 °F 9.0 °F 51% 30.14 in 10.0 mi WSW 5.8 mph - N/A   Clear
6:53 PM 25.7 °F 21.5 °F 7.0 °F 45% 30.14 in 10.0 mi SW 3.5 mph - N/A   Scattered Clouds
7:13 PM 25.7 °F - 7.2 °F 45% 30.13 in 10.0 mi Calm Calm - N/A   Scattered Clouds
7:33 PM 25.5 °F 21.3 °F 8.8 °F 49% 30.13 in 10.0 mi South 3.5 mph - N/A   Clear
7:53 PM 25.2 °F 18.3 °F 9.0 °F 50% 30.13 in 10.0 mi South 5.8 mph - N/A   Clear
8:13 PM 24.8 °F 19.1 °F 9.1 °F 51% 30.13 in 10.0 mi South 4.6 mph - N/A   Clear
8:33 PM 24.1 °F 17.0 °F 10.8 °F 57% 30.13 in 10.0 mi SSE 5.8 mph - N/A   Clear
8:53 PM 22.8 °F 16.7 °F 12.0 °F 63% 30.12 in 10.0 mi SSE 4.6 mph - N/A   Clear
9:13 PM 22.1 °F 13.7 °F 10.9 °F 62% 30.12 in 10.0 mi SE 6.9 mph - N/A   Clear
9:33 PM 22.8 °F 15.5 °F 12.0 °F 63% 30.12 in 10.0 mi SSE 5.8 mph - N/A   Clear
9:53 PM 23.0 °F 15.8 °F 12.0 °F 63% 30.13 in 10.0 mi SSE 5.8 mph - N/A   Clear
10:13 PM 22.8 °F 15.5 °F 12.2 °F 64% 30.13 in 10.0 mi SSE 5.8 mph - N/A   Clear
10:34 PM 22.6 °F 14.3 °F 12.0 °F 64% 30.13 in 10.0 mi SSE 6.9 mph - N/A   Clear
10:53 PM 22.6 °F 14.3 °F 11.3 °F 62% 30.12 in 10.0 mi SSE 6.9 mph - N/A   Clear
11:13 PM 22.6 °F 13.4 °F 11.3 °F 62% 30.12 in 10.0 mi SE 8.1 mph - N/A   Clear
11:33 PM 23.0 °F 13.9 °F 11.3 °F 61% 30.12 in 10.0 mi SSE 8.1 mph - N/A   Clear
11:54 PM 23.4 °F 14.3 °F 11.5 °F 60% 30.11 in 10.0 mi SSE 8.1 mph - N/A   Clear